Regional Weather Roundup
Issued by NWS

Home | Current Version | Previous Version | Text Only | Print | Product List | Glossary On
Versions: 1 2 3 4 5 6 7 8 9 10 11 12 13 14 15 16 17 18 19 20 21 22 23 24 25 26 27 28 29 30 31 32 33 34 35 36 37 38 39 40 41 42 43 44 45 46 47 48 49 50
000
ASUS44 KFWD 231715
RWRTX
NORTH TEXAS HOURLY WEATHER ROUNDUP
NATIONAL WEATHER SERVICE FORT WORTH TX
1200 PM CDT TUE SEP 23 2014

NOTE: "FAIR" INDICATES FEW OR NO CLOUDS BELOW 12,000 FEET WITH NO
SIGNIFICANT WEATHER AND/OR OBSTRUCTIONS TO VISIBILITY.

TXZ118-119-231800-
DALLAS/FORT WORTH METROPLEX

CITY           SKY/WX    TMP DP  RH WIND       PRES   REMARKS
DFW AIRPORT    PTSUNNY   75  52  44 SE7       30.20F
DALLAS LOVE    PTSUNNY   75  52  44 VRB7      30.21S
FTW MEACHAM    MOSUNNY   78  52  40 SE10      30.19F
DAL-EXECUTIVE  MOSUNNY   78  51  38 VRB7      30.20F
FTW-ALLIANCE   MOSUNNY   76  51  41 S7        30.19F
FTW-NAS-JRB    MOSUNNY   80  50  34 SE6       30.24S
FTW-SPINKS     SUNNY     79  52  38 SE8       30.21F
ARLINGTON      MOSUNNY   77  50  38 E8        30.20S
GRAND PRAIRIE  SUNNY     77  48  36 MISG      30.21F
ADDISON        MOSUNNY   75  50  41 SE8       30.21S
MESQUITE       SUNNY     77  48  36 SE5       30.21S
LANCASTER      MOSUNNY   76  49  39 SE6       30.22S
$$

TXZ091>094-102>105-117-120-121-131>134-231800-
NORTH CENTRAL TEXAS

CITY           SKY/WX    TMP DP  RH WIND       PRES   REMARKS
SHRMAN/DENISON SUNNY     75  52  43 SE7       30.23S
GAINESVILLE    SUNNY     74  54  49 SE8       30.23F
BOWIE          SUNNY     76  53  43 SE8       30.21S
BRIDGEPORT     MOSUNNY   75  50  41 SE5       30.22F
DECATUR        MOSUNNY   74  50  42 S3        30.21F
DENTON         MOSUNNY   77  50  38 SE9       30.20F
MCKINNEY       SUNNY     76  52  43 SE8       30.21F
GREENVILLE     SUNNY     77  50  38 NE3       30.21F
ROCKWALL       SUNNY     76  53  44 SE5       30.20S
TERRELL        MOSUNNY   79  49  34 E7        30.21S
WAXAHACHIE     MOSUNNY   76  49  37 CALM      30.21F
CLEBURNE       SUNNY     79  50  36 S8        30.21S
GRANBURY       SUNNY     80  51  37 SE8       30.20F
$$

TXZ083>090-098>101-113>116-127>130-139>142-154-155-231800-
WESTERN NORTH TEXAS

CITY           SKY/WX    TMP DP  RH WIND       PRES   REMARKS
WICHITA FALLS  MOSUNNY   77  53  43 S12       30.18F
WF-KICKAPOO    SUNNY     78  50  37 S6        30.21S
VERNON         SUNNY     78  51  39 S12       30.19F
ABILENE        MOSUNNY   80  58  46 S12       30.19F
ABILENE-DYESS  MOSUNNY   80  55  41 S10       30.18F
BRECKENRIDGE   MOSUNNY   79  53  40 S3        30.18F
GRAHAM         MOSUNNY   79  50  35 SE6       30.18S
MINERAL WELLS  SUNNY     77  51  40 S10       30.19S
STEPHENVILLE   MOSUNNY   76  52  42 S7        30.23F
COMANCHE       SUNNY     81  52  35 S6        30.19F
BROWNWOOD      MOSUNNY   77  57  50 S5        30.19F
COLEMAN        PTSUNNY   77  57  50 S6        30.20F
BRADY          SUNNY     75  61  60 VRB6      30.19F
$$

TXZ143>147-156>162-174-175-231800-
CENTRAL TEXAS

CITY           SKY/WX    TMP DP  RH WIND       PRES   REMARKS
WACO           SUNNY     79  52  38 VRB5      30.19S
WACO-TSTC      SUNNY     77  52  41 S3        30.19S
WACO-MCGREGOR  SUNNY     81  52  36 CALM      30.20S
HILLSBORO      SUNNY     78  50  36 E6        30.20S
CORSICANA      MOSUNNY   78  51  38 NE8       30.20F
MEXIA          SUNNY     76  54  45 E5        30.18S
HEARNE         SUNNY     79  55  43 N5        30.17F
CAMERON        SUNNY     79  56  44 E8        30.17F
TEMPLE         SUNNY     79  52  38 E6        30.17F
KILLEEN        PTSUNNY   79  54  41 E6        30.18F
KILLEEN-SKYLRK SUNNY     77  54  44 E7        30.18F
FORT HOOD      SUNNY     81  53  37 E5        30.18F
GATESVILLE     SUNNY     77  54  44 CALM      30.20F
HAMILTON       SUNNY     78  50  38 SE9       30.21S
LAMPASAS       SUNNY     78  59  52 S6        30.18F
$$

TXZ095>097-106>112-122>126-135>138-148>153-164>167-231800-
EAST TEXAS

CITY           SKY/WX    TMP DP  RH WIND       PRES   REMARKS
PARIS          SUNNY     72  50  46 E10       30.24S
SULPHUR SPRNGS SUNNY     76  51  40 E7        30.23F
MOUNT PLEASANT SUNNY     74  53  46 SE3       30.22F
GILMER         SUNNY     75  54  46 SE7       30.22F
MINEOLA        SUNNY     75  50  41 CALM      30.21F
TYLER          SUNNY     76  53  44 SE5       30.20S
LONGVIEW       SUNNY     76  52  43 E8        30.19F
MARSHALL       SUNNY     78  52  39 NE5       30.21F
ATHENS         MOSUNNY   75  50  41 E7        30.18F
PALESTINE      PTSUNNY   76  55  48 NE6       30.20S
JACKSONVILLE   MOSUNNY   75  52  44 E7        30.21F
HENDERSON      SUNNY     76  52  43 E8        30.20F
NACOGDOCHES    MOSUNNY   77  54  44 E5        30.18F
LUFKIN         MOSUNNY   80  55  42 NE8       30.17F
$$

SUPPLEMENTAL OBSERVATIONS (CENTRAL)

CITY           SKY/WX    TMP DP  RH WIND       PRES   REMARKS
LAKE TEXOMA      N/A     72  52  49 SE5         N/A
PAT MAYSE LAKE   N/A     72  52  49 E3          N/A
GREENVILLE       N/A     77  50  38 E6          N/A
CEDAR HILL       N/A     82  52  34 E2          N/A
ATHENS           N/A     77  50  38 SE7         N/A
PALESTINE        N/A     79  54  41 E6          N/A
LAKE LIMESTONE   N/A     81  54  39 E9          N/A
MCGREGOR         N/A     81  50  34 SE6         N/A
TEMPLE           N/A     79  52  38 E7          N/A
$$

SUPPLEMENTAL OBSERVATIONS (WEST)

CITY           SKY/WX    TMP DP  RH WIND       PRES   REMARKS
POSSUM KINGDOM   N/A     79  50  36 S7          N/A
GRANBURY         N/A     79  50  36 SE8         N/A
COMANCHE         N/A     81  57  44 S7G15       N/A
HAMBY            N/A     81  59  47 S10         N/A
COLORADO BEND    N/A     79  54  41 S6G14       N/A
$$

SUPPLEMENTAL OBSERVATIONS (EAST)

CITY           SKY/WX    TMP DP  RH WIND       PRES   REMARKS
CLARKSVILLE      N/A     75  52  43 SE5         N/A
TEXARKANA        N/A     75  52  43 E3          N/A
LINDEN           N/A     77  54  44 E3G12       N/A
GILMER           N/A     77  54  44 SE5G13      N/A
HENDERSON        N/A     77  52  41 NE7         N/A
LUFKIN           N/A     79  52  38 MISG        N/A
N SABINE NF      N/A     81  54  39 MISG        N/A
$$

SUPPLEMENTAL OBSERVATIONS ARE A COLLECTION OF AUTOMATED INSTRUMENTS
THAT ARE MAINTAINED BY A VARIETY OF FEDERAL AND STATE AGENCIES.
CERTAIN ELEMENTS...SUCH AS HUMIDITY VALUES AND SUSTAINED WIND
SPEEDS...MAY BE APPROXIMATED.




USA.gov is the U.S. government's official web portal to all federal, state and local government web resources and services.